TimeEST,TemperatureF,Dew PointF,Humidity,Sea Level PressureIn,VisibilityMPH,Wind Direction,Wind SpeedMPH,Gust SpeedMPH,PrecipitationIn,Events,Conditions,WindDirDegrees,DateUTC
12:55 AM,21.7,19.4,91,30.20,10.0,Calm,Calm,-,N/A,,Clear,0,2013-01-04 05:55:00
1:55 AM,21.9,19.2,89,30.22,8.0,ENE,3.5,-,N/A,,Clear,60,2013-01-04 06:55:00
2:55 AM,20.8,18.3,90,30.23,10.0,Calm,Calm,-,N/A,,Clear,0,2013-01-04 07:55:00
3:55 AM,19.8,17.1,89,30.23,10.0,SE,3.5,-,N/A,,Clear,140,2013-01-04 08:55:00
4:55 AM,20.3,17.6,89,30.23,10.0,Calm,Calm,-,N/A,,Clear,0,2013-01-04 09:55:00
5:55 AM,20.7,17.6,88,30.23,10.0,Calm,Calm,-,N/A,,Clear,0,2013-01-04 10:55:00
6:55 AM,21.0,18.3,89,30.24,10.0,Calm,Calm,-,N/A,,Clear,0,2013-01-04 11:55:00
7:55 AM,20.3,18.0,91,30.24,10.0,Calm,Calm,-,N/A,,Clear,0,2013-01-04 12:55:00
8:55 AM,26.8,23.0,86,30.24,10.0,Calm,Calm,-,N/A,,Clear,0,2013-01-04 13:55:00
9:55 AM,37.4,21.2,52,30.24,10.0,West,6.9,-,N/A,,Clear,280,2013-01-04 14:55:00
10:55 AM,40.3,19.8,44,30.23,10.0,West,8.1,-,N/A,,Clear,260,2013-01-04 15:55:00
11:55 AM,41.7,19.4,41,30.20,10.0,West,8.1,20.7,N/A,,Clear,270,2013-01-04 16:55:00
12:55 PM,43.0,19.2,39,30.17,10.0,WSW,9.2,-,N/A,,Clear,250,2013-01-04 17:55:00
1:55 PM,44.1,20.1,39,30.14,10.0,Variable,6.9,-,N/A,,Clear,0,2013-01-04 18:55:00
2:55 PM,44.4,20.1,38,30.14,10.0,West,4.6,-,N/A,,Clear,270,2013-01-04 19:55:00
3:55 PM,44.6,19.6,37,30.14,10.0,WSW,9.2,-,N/A,,Clear,250,2013-01-04 20:55:00
4:55 PM,43.0,19.2,39,30.14,10.0,West,5.8,-,N/A,,Partly Cloudy,280,2013-01-04 21:55:00
5:55 PM,38.8,19.6,46,30.16,10.0,Calm,Calm,-,N/A,,Clear,0,2013-01-04 22:55:00
6:55 PM,38.7,18.3,44,30.16,10.0,WNW,8.1,-,N/A,,Partly Cloudy,300,2013-01-04 23:55:00
7:55 PM,37.2,18.1,46,30.19,10.0,WNW,6.9,-,N/A,,Clear,300,2013-01-05 00:55:00
8:55 PM,35.8,18.0,48,30.19,10.0,NW,6.9,-,N/A,,Clear,310,2013-01-05 01:55:00
9:55 PM,35.1,17.1,48,30.19,10.0,West,5.8,-,N/A,,Clear,260,2013-01-05 02:55:00
10:55 PM,30.7,17.8,59,30.21,10.0,Calm,Calm,-,N/A,,Clear,0,2013-01-05 03:55:00
11:55 PM,27.3,18.5,69,30.20,10.0,Calm,Calm,-,N/A,,Clear,0,2013-01-05 04:55:00